Volver al catálogo

NANOACE

ActivoCienciaSSO
NORAD 42844·PAYLOAD·🇺🇸 United States

Lanzado Jul 14, 2017 desde Baikonur Cosmodrome

Loading…

Próximos Pases (próximas 24 horas)

TLE

ActualizadoSource: Space-Track

Época: Sep 14, 2026, 10:33 UTC

1 42844U 17042V   26257.44026628  .00009446  00000-0  36653-3 0  9999
2 42844  97.3801  70.4568 0005207  67.1378 293.0410 15.26306515501681

Sigue NANOACE en tiempo real con AllMySat

Download on the App Store